Temp
-5 -6 -6 -6 -6 -7 -7 -6 -6 -6 -6 -6 -6 -7 -7 -7 -7 -7 -7 -6 -7 -7 -6 -7 -7 -7 -7 -8 -8 -7 -7 -8 -8 -8 -8 -8 -7 -7 -7 -7 -7 -7 -7 -7
-6 -5 -7 -7 -6 -7 -7 -6 -6 -6 -6 -6 -6 -7 -7 -7 -6 -6 -6 -6 -7 -7 -7 -7 -7 -7 -7 -7 -8 -7 -7 -7 -8 -8 -8 -8 -7 -8 -7 -7 -8 -7 -7 -7
-6 -6 -7 -7 -7 -7 -7 -7 -7 -6 -6 -6 -6 -6 -7 -7 -6 -6 -6 -6 -6 -7 -7 -7 -7 -7 -7 -7 -7 -7 -7 -7 -8 -8 -8 -8 -8 -8 -8 -7 -7 -7 -7 -7
-6 -6 -7 -7 -7 -7 -7 -7 -6 -6 -6 -6 -6 -6 -6 -7 -7 -5 -5 -6 -6 -6 -7 -7 -7 -7 -7 -7 -7 -7 -7 -7 -7 -7 -7 -7 -7 -7 -8 -7 -7 -7 -7 -7
-6 -6 -6 -7 -7 -7 -7 -7 -7 -7 -6 -6 -6 -6 -5 -5 -6 -5 -5 -5 -6 -6 -6 -7 -7 -7 -7 -7 -7 -7 -7 -8 -8 -8 -8 -8 -7 -7 -7 -7 -7 -7 -7 -7
-6 -6 -6 -6 -6 -7 -7 -7 -7 -6 -6 -6 -6 -5 -5 -5 -5 -5 -5 -5 -5 -6 -6 -7 -7 -7 -7 -7 -7 -7 -6 -7 -7 -7 -8 -8 -8 -8 -7 -7 -7 -7 -7 -7
-6 -5 -6 -6 -6 -6 -6 -7 -7 -6 -5 -5 -5 -5 -5 -4 -5 -5 -5 -5 -5 -5 -6 -6 -6 -7 -7 -7 -7 -7 -7 -7 -7 -7 -7 -7 -7 -7 -7 -7 -7 -7 -7 -7
-7 -6 -6 -6 -6 -6 -6 -7 -7 -5 -6 -6 -5 -5 -5 -5 -5 -5 -5 -5 -5 -5 -6 -6 -6 -6 -7 -7 -6 -6 -7 -7 -7 -7 -7 -7 -7 -7 -7 -7 -7 -7 -7 -7
-7 -6 -6 -6 -6 -5 -6 -6 -6 -5 -6 -6 -5 -4 -4 -5 -5 -5 -5 -5 -6 -6 -6 -6 -6 -6 -6 -6 -6 -6 -6 -7 -7 -7 -7 -7 -7 -7 -7 -7 -7 -7 -8 -8
-7 -6 -6 -7 -6 -5 -6 -7 -6 -5 -5 -5 -4 -4 -4 -4 -5 -5 -4 -5 -5 -6 -5 -5 -6 -6 -6 -6 -6 -6 -6 -7 -7 -7 -7 -7 -7 -7 -7 -7 -7 -8 -7 -8
-7 -7 -7 -6 -5 -5 -6 -6 -7 -6 -6 -5 -4 -4 -5 -5 -5 -5 -4 -5 -5 -6 -6 -6 -6 -6 -6 -6 -6 -6 -6 -6 -6 -7 -7 -7 -7 -7 -7 -7 -7 -7 -6 -7
-7 -7 -7 -6 -6 -6 -7 -7 -7 -6 -6 -5 -4 -4 -5 -5 -5 -5 -5 -5 -6 -6 -6 -6 -6 -6 -6 -6 -6 -6 -6 -6 -6 -6 -6 -6 -6 -6 -7 -7 -7 -6 -7 -7
-8 -8 -7 -6 -5 -5 -6 -7 -7 -7 -6 -6 -4 -4 -4 -4 -5 -5 -5 -6 -6 -6 -6 -6 -6 -6 -6 -6 -6 -5 -6 -6 -6 -6 -6 -6 -6 -6 -7 -6 -7 -7 -6 -6
-8 -8 -7 -6 -5 -5 -6 -7 -6 -6 -5 -5 -5 -5 -4 -4 -4 -5 -6 -6 -7 -7 -7 -6 -6 -6 -6 -6 -6 -5 -5 -5 -5 -6 -6 -6 -6 -6 -6 -6 -6 -6 -6 -6
-7 -8 -7 -6 -6 -6 -6 -6 -6 -6 -5 -5 -5 -5 -5 -5 -5 -5 -6 -6 -7 -7 -6 -6 -6 -6 -6 -6 -5 -5 -5 -5 -5 -5 -6 -6 -6 -6 -6 -7 -7 -6 -6 -6
-8 -8 -8 -7 -6 -7 -6 -6 -6 -6 -6 -6 -5 -5 -5 -5 -5 -6 -7 -6 -7 -7 -6 -6 -6 -5 -5 -5 -5 -5 -5 -5 -5 -6 -6 -6 -6 -6 -6 -7 -6 -6 -6 -6
-8 -8 -7 -7 -6 -7 -6 -6 -6 -6 -6 -6 -5 -5 -5 -6 -5 -6 -6 -6 -7 -6 -6 -6 -6 -5 -5 -5 -5 -5 -5 -5 -6 -6 -6 -6 -6 -6 -6 -6 -6 -6 -5 -5
-8 -8 -7 -7 -7 -7 -5 -5 -5 -6 -6 -6 -6 -6 -6 -6 -6 -6 -6 -6 -7 -6 -6 -6 -6 -5 -5 -5 -5 -5 -5 -6 -6 -6 -6 -6 -6 -6 -6 -7 -6 -6 -6 -5
-7 -8 -7 -7 -7 -7 -6 -5 -5 -5 -5 -6 -6 -6 -6 -6 -6 -6 -6 -6 -6 -6 -6 -6 -6 -6 -6 -6 -6 -6 -6 -6 -6 -6 -6 -6 -6 -6 -6 -6 -6 -6 -6 -6
-8 -8 -7 -7 -7 -7 -7 -6 -5 -6 -5 -6 -5 -5 -6 -6 -5 -6 -6 -7 -6 -6 -6 -6 -6 -6 -6 -6 -6 -6 -6 -6 -6 -6 -6 -6 -6 -6 -6 -6 -6 -6 -6 -6
-8 -8 -7 -7 -7 -7 -7 -6 -6 -6 -4 -5 -5 -6 -6 -6 -6 -7 -7 -7 -7 -6 -6 -5 -6 -6 -6 -6 -6 -6 -6 -6 -6 -6 -6 -6 -6 -6 -6 -6 -6 -6 -6 -7
-8 -7 -7 -7 -7 -7 -6 -6 -6 -4 -5 -6 -6 -6 -6 -7 -7 -7 -7 -7 -6 -6 -6 -6 -6 -6 -6 -6 -6 -6 -6 -6 -6 -6 -6 -6 -6 -6 -6 -6 -6 -6 -7 -7
-8 -7 -7 -7 -7 -6 -6 -6 -6 -5 -5 -6 -6 -6 -5 -7 -7 -7 -7 -7 -7 -6 -6 -6 -6 -6 -6 -6 -6 -6 -6 -6 -6 -6 -6 -6 -6 -6 -6 -6 -7 -7 -7 -8
-8 -7 -7 -7 -6 -6 -6 -6 -6 -6 -5 -6 -6 -6 -6 -7 -7 -7 -7 -7 -7 -7 -7 -7 -7 -7 -6 -6 -6 -6 -6 -6 -6 -6 -6 -7 -7 -7 -7 -7 -7 -8 -8 -8
-8 -7 -7 -7 -7 -6 -6 -6 -6 -6 -6 -6 -6 -6 -6 -7 -7 -7 -7 -7 -7 -7 -7 -7 -7 -7 -7 -7 -7 -7 -7 -7 -7 -7 -7 -7 -7 -7 -7 -8 -8 -8 -9 -9
-8 -7 -7 -7 -7 -6 -7 -6 -7 -6 -6 -6 -6 -6 -6 -7 -7 -7 -7 -7 -8 -8 -8 -8 -7 -7 -7 -8 -7 -7 -7 -7 -7 -7 -7 -7 -7 -7 -7 -8 -8 -9 -9 -9
Height
5905 5903 5903 5901 5905 5906 5909 5910 5912 5913 5912 5911 5910 5909 5907 5908 5908 5908 5908 5905 5906 5906 5904 5904 5905 5905 5905 5905 5904 5905 5906 5905 5906 5906 5908 5908 5908 5910 5911 5913 5915 5916 5918 5920
5904 5905 5904 5904 5904 5907 5910 5911 5913 5914 5914 5913 5913 5912 5911 5910 5911 5911 5909 5907 5908 5908 5907 5907 5907 5908 5908 5908 5907 5909 5908 5907 5907 5907 5908 5909 5910 5911 5913 5914 5915 5918 5920 5922
5904 5906 5906 5905 5907 5909 5913 5914 5914 5917 5916 5915 5915 5914 5913 5914 5913 5911 5911 5910 5910 5910 5911 5910 5911 5911 5911 5911 5909 5911 5911 5910 5910 5910 5911 5911 5912 5913 5914 5916 5918 5920 5921 5921
5903 5905 5906 5907 5910 5912 5914 5915 5915 5917 5917 5917 5917 5916 5914 5914 5914 5913 5912 5912 5912 5912 5912 5913 5913 5913 5913 5912 5911 5912 5913 5913 5913 5912 5913 5914 5916 5917 5917 5919 5920 5921 5921 5919
5904 5904 5906 5908 5910 5912 5914 5915 5916 5917 5917 5917 5918 5918 5916 5916 5916 5917 5916 5915 5915 5914 5913 5914 5915 5915 5915 5915 5916 5915 5914 5915 5913 5914 5915 5918 5919 5919 5918 5919 5921 5922 5921 5921
5900 5903 5906 5909 5911 5912 5913 5916 5916 5916 5917 5919 5919 5919 5918 5918 5918 5919 5920 5919 5918 5917 5917 5917 5917 5918 5917 5918 5918 5918 5916 5915 5914 5915 5917 5919 5920 5921 5921 5921 5922 5922 5921 5921
5898 5903 5906 5910 5913 5914 5915 5915 5916 5916 5918 5920 5920 5919 5919 5920 5921 5922 5923 5922 5922 5921 5921 5920 5921 5920 5920 5920 5920 5920 5919 5918 5917 5918 5919 5919 5920 5922 5922 5922 5921 5921 5921 5919
5897 5903 5907 5911 5913 5913 5914 5915 5915 5917 5920 5922 5920 5920 5922 5922 5923 5925 5926 5924 5925 5925 5925 5925 5925 5925 5924 5923 5923 5922 5922 5922 5922 5921 5921 5921 5921 5920 5919 5920 5919 5918 5918 5917
5895 5902 5906 5908 5911 5914 5913 5915 5917 5918 5920 5921 5922 5923 5924 5924 5925 5929 5927 5925 5927 5928 5928 5928 5928 5928 5928 5927 5927 5926 5925 5924 5924 5924 5923 5924 5923 5923 5922 5921 5920 5919 5919 5916
5894 5899 5903 5905 5908 5910 5911 5916 5918 5919 5920 5922 5923 5925 5927 5927 5929 5930 5928 5927 5928 5929 5930 5929 5928 5929 5929 5929 5928 5927 5926 5925 5925 5925 5924 5924 5923 5923 5922 5921 5920 5919 5916 5913
5890 5896 5901 5902 5906 5908 5911 5914 5917 5919 5921 5923 5924 5926 5927 5930 5931 5931 5929 5929 5928 5930 5931 5931 5931 5931 5932 5931 5931 5930 5929 5928 5928 5927 5925 5924 5923 5922 5920 5919 5918 5915 5913 5909
5888 5892 5897 5902 5903 5904 5906 5911 5913 5920 5923 5925 5926 5928 5927 5930 5930 5930 5930 5930 5929 5931 5932 5932 5932 5933 5933 5932 5931 5930 5930 5929 5928 5927 5925 5924 5922 5920 5919 5917 5915 5912 5909 5905
5882 5884 5892 5896 5900 5901 5904 5909 5910 5916 5921 5926 5928 5928 5929 5930 5930 5929 5929 5930 5931 5932 5933 5933 5933 5933 5934 5933 5932 5931 5930 5929 5927 5926 5924 5923 5921 5918 5917 5915 5912 5908 5905 5901
5874 5881 5887 5894 5902 5902 5904 5909 5910 5915 5922 5925 5928 5928 5930 5931 5930 5930 5931 5931 5932 5934 5935 5935 5935 5935 5934 5933 5933 5932 5931 5929 5927 5926 5924 5922 5920 5916 5914 5912 5909 5906 5902 5897
5866 5872 5883 5891 5896 5897 5902 5908 5911 5913 5919 5924 5929 5929 5929 5930 5931 5931 5932 5932 5933 5935 5936 5935 5935 5935 5935 5934 5933 5931 5930 5929 5927 5925 5923 5920 5917 5914 5910 5907 5904 5901 5897 5894
5861 5870 5876 5884 5892 5893 5898 5904 5909 5912 5916 5920 5924 5927 5928 5930 5931 5931 5931 5932 5933 5934 5935 5935 5935 5935 5934 5933 5932 5931 5929 5927 5925 5923 5920 5918 5914 5911 5908 5904 5900 5897 5893 5888
5851 5863 5872 5879 5887 5889 5891 5898 5903 5909 5914 5919 5924 5926 5927 5928 5930 5929 5930 5932 5933 5934 5934 5934 5934 5933 5933 5932 5930 5929 5928 5926 5923 5920 5917 5913 5910 5906 5903 5899 5896 5892 5889 5885
5845 5857 5866 5875 5879 5877 5889 5896 5902 5906 5910 5914 5919 5924 5925 5926 5928 5929 5929 5931 5932 5932 5932 5932 5933 5932 5931 5930 5929 5927 5924 5922 5919 5916 5913 5910 5906 5902 5898 5894 5891 5888 5884 5881
5841 5851 5857 5863 5869 5877 5883 5890 5896 5901 5906 5910 5914 5918 5921 5923 5925 5927 5927 5929 5929 5929 5930 5930 5931 5930 5928 5928 5926 5924 5922 5919 5916 5913 5910 5906 5902 5898 5894 5890 5887 5883 5880 5876
5836 5845 5853 5858 5862 5865 5877 5887 5895 5899 5901 5906 5910 5914 5917 5919 5924 5924 5925 5927 5927 5928 5928 5928 5927 5926 5926 5925 5923 5921 5919 5916 5913 5909 5906 5902 5898 5894 5890 5886 5883 5879 5874 5870
5826 5835 5840 5850 5857 5864 5873 5882 5887 5889 5901 5904 5908 5912 5913 5917 5920 5921 5923 5924 5925 5925 5925 5925 5925 5924 5923 5922 5920 5917 5914 5911 5909 5906 5903 5899 5895 5891 5887 5883 5879 5874 5870 5866
5819 5827 5832 5844 5850 5859 5868 5875 5878 5891 5897 5901 5905 5909 5910 5913 5917 5919 5921 5922 5923 5923 5922 5922 5922 5921 5920 5918 5916 5913 5910 5907 5905 5902 5899 5896 5892 5888 5883 5879 5874 5870 5866 5862
5814 5820 5829 5837 5846 5857 5866 5875 5882 5886 5894 5897 5902 5905 5907 5910 5915 5917 5918 5920 5920 5920 5920 5920 5919 5918 5916 5914 5911 5909 5906 5903 5901 5898 5895 5892 5888 5883 5879 5874 5869 5864 5859 5855
5808 5818 5827 5838 5845 5853 5864 5872 5878 5884 5889 5894 5898 5902 5904 5907 5912 5914 5915 5917 5918 5918 5917 5916 5915 5914 5912 5910 5908 5905 5903 5900 5897 5894 5891 5887 5884 5879 5873 5868 5863 5858 5853 5848
5805 5815 5823 5832 5842 5851 5859 5867 5875 5880 5884 5889 5895 5898 5901 5904 5908 5911 5912 5914 5915 5914 5914 5913 5911 5910 5909 5907 5904 5901 5899 5896 5894 5890 5886 5882 5878 5873 5867 5861 5856 5851 5846 5841
5800 5810 5818 5827 5837 5846 5856 5864 5870 5874 5880 5885 5890 5893 5897 5901 5904 5907 5908 5910 5910 5910 5909 5909 5908 5906 5905 5903 5901 5898 5895 5892 5889 5885 5881 5877 5872 5867 5861 5855 5850 5844 5839 5835
Wind_Speed
14 17 15 19 15 11 8 10 8 8 8 9 8 6 9 7 11 12 14 17 16 14 15 15 13 9 10 7 5 4 3 9 9 10 9 8 10 14 14 15 15 12 10 10
19 18 20 18 15 14 10 7 5 5 8 8 7 3 5 5 7 9 12 17 19 17 17 17 16 14 10 10 10 7 8 6 12 8 7 6 10 9 8 7 9 8 7 8
24 24 19 17 15 18 15 11 5 4 4 6 6 2 4 6 5 7 10 13 15 14 16 17 17 16 15 12 12 7 9 12 10 11 8 10 8 6 10 7 5 5 5 6
29 26 21 18 13 13 12 7 5 6 5 1 4 4 3 7 5 8 12 15 17 18 19 17 17 16 16 15 15 11 11 14 14 13 11 9 7 5 7 5 3 4 4 5
27 26 22 17 16 12 8 8 6 8 10 8 3 5 5 8 9 7 13 18 18 18 19 19 18 18 19 17 16 15 15 12 14 13 13 8 6 4 3 2 2 1 3 6
31 26 24 19 16 11 13 8 5 11 12 11 9 8 10 11 11 9 11 14 17 18 19 21 21 20 22 22 20 19 19 18 18 17 14 12 9 7 5 5 4 5 7 9
33 27 24 18 14 9 9 7 6 5 15 11 9 9 10 11 13 12 11 13 15 16 17 18 18 18 19 20 20 20 20 20 19 18 17 15 13 13 12 11 9 10 11 13
34 23 18 18 14 12 5 6 7 14 10 7 11 12 13 12 12 12 13 17 16 15 14 16 17 18 18 18 18 18 19 18 17 16 14 13 12 11 10 10 11 13 18 18
30 23 24 22 15 14 6 4 3 11 10 9 10 12 13 12 12 13 18 20 18 16 17 17 18 19 19 19 18 18 18 18 17 15 14 12 10 9 9 10 11 12 13 18
32 31 22 24 20 17 12 6 6 13 11 11 12 13 12 14 14 16 19 21 19 17 16 17 19 18 18 18 19 20 19 19 18 17 15 13 11 10 9 11 13 15 20 16
38 32 27 25 17 17 15 8 3 10 10 14 15 18 17 15 16 15 18 18 19 15 13 15 17 16 15 15 16 17 16 16 16 14 13 13 12 11 14 15 16 15 16 23
41 35 33 23 21 21 16 12 6 13 16 11 16 22 20 19 19 18 18 17 18 13 10 12 14 14 13 13 14 15 16 15 14 14 14 14 14 14 14 17 18 18 21 24
44 41 38 31 26 25 24 15 13 11 22 16 18 18 17 21 18 16 17 16 15 12 10 11 11 11 11 12 14 15 15 14 13 14 14 15 15 15 15 16 18 20 22 22
49 42 40 35 24 25 22 17 14 13 25 19 13 12 13 16 15 15 15 16 15 13 9 7 7 7 9 9 9 10 12 13 14 15 14 14 15 16 18 19 19 20 22 24
55 49 43 34 30 28 24 19 13 24 23 19 15 11 13 11 12 14 13 13 13 10 6 6 6 5 5 6 7 9 11 13 15 16 17 18 18 19 21 23 23 22 22 20
56 53 45 38 36 32 28 25 19 18 18 18 25 16 12 12 10 10 12 11 12 8 6 6 4 4 5 6 6 8 9 11 14 16 18 19 20 20 21 21 21 21 21 22
60 55 49 43 40 34 37 32 27 21 16 16 15 8 7 9 4 8 11 10 9 8 7 6 4 5 5 7 8 8 9 11 14 16 20 21 22 23 23 22 20 21 20 21
62 56 51 46 44 47 38 35 33 23 20 18 14 16 11 12 6 4 5 7 7 8 9 7 5 6 6 8 10 11 13 15 17 20 22 23 24 25 24 22 21 20 20 21
62 57 56 56 52 42 41 38 36 28 23 22 19 24 22 14 10 1 4 6 9 8 7 8 8 8 8 11 12 13 15 16 19 22 24 23 25 25 24 23 24 22 22 23
65 60 58 58 56 49 39 38 33 29 28 23 22 20 20 15 6 1 4 9 9 7 8 10 10 10 12 14 15 16 17 19 21 22 22 23 25 25 26 27 27 26 26 26
68 65 63 61 57 47 41 35 33 39 27 25 22 21 19 9 3 1 2 6 10 9 10 11 13 14 16 19 20 20 21 22 22 22 22 25 26 27 29 30 31 30 30 29
69 68 67 64 59 52 43 38 37 25 22 25 15 21 17 11 6 3 3 9 9 8 10 12 14 17 21 23 22 22 20 20 22 24 25 27 27 28 30 31 31 32 32 31
69 67 68 67 60 50 42 31 28 27 21 23 16 12 15 9 6 7 5 10 7 9 10 12 15 19 21 20 20 19 20 21 23 25 27 29 30 32 34 35 34 33 32 31
67 66 66 66 56 53 41 32 28 30 23 19 20 19 11 4 9 10 6 9 11 14 13 15 18 17 17 18 19 19 21 23 25 27 29 32 35 37 38 37 35 34 32 29
65 64 65 63 57 49 39 33 27 31 30 28 23 16 13 9 12 10 10 18 16 15 15 18 18 18 18 18 19 20 22 24 26 29 32 36 39 39 37 36 36 34 30 28
65 62 58 60 55 52 41 33 33 33 31 31 25 21 17 14 14 12 16 19 18 20 23 21 21 21 19 19 21 23 24 25 27 31 35 37 40 39 37 36 36 32 30 29
Wind_Direction
182 134 116 119 147 100 63 98 100 102 66 51 64 69 88 104 112 121 118 110 102 94 88 90 90 99 82 108 149 164 136 155 122 118 101 95 77 96 114 126 126 129 135 141
174 156 131 121 116 94 83 73 62 60 43 38 44 56 105 129 122 129 118 109 101 92 83 85 87 88 90 91 105 134 160 138 140 130 141 110 90 81 114 104 116 135 158 177
167 155 150 139 126 103 78 68 43 81 72 356 346 21 147 141 161 134 116 107 104 103 97 88 85 80 78 75 85 85 146 154 130 100 80 101 96 64 104 97 123 148 180 190
166 165 150 149 135 98 93 95 95 151 207 163 312 350 121 150 171 110 107 106 103 93 88 87 84 86 83 74 72 83 105 122 119 113 105 104 92 95 101 114 152 190 200 210
171 170 157 158 152 119 119 128 131 160 177 162 145 76 113 122 120 130 102 105 104 100 94 90 86 88 88 89 86 81 93 98 93 92 98 103 106 124 136 149 224 241 293 290
178 180 172 172 162 149 131 110 45 212 176 165 149 129 123 122 122 134 101 98 102 102 99 98 92 87 86 85 86 88 87 82 79 78 78 81 79 71 59 33 2 343 331 320
188 187 175 171 170 163 133 87 41 173 177 167 151 132 139 133 127 126 115 104 101 102 105 98 95 91 86 84 82 81 80 80 81 78 75 70 63 60 55 48 31 16 359 347
185 187 176 176 167 166 101 69 54 138 157 207 162 149 148 139 132 132 133 108 102 100 100 101 97 92 88 80 76 77 79 76 73 70 64 57 57 49 34 22 14 11 5 350
201 207 177 175 182 182 127 121 146 182 188 216 170 157 154 152 145 164 129 115 110 103 99 94 92 91 88 83 78 73 68 65 61 59 55 50 41 25 16 7 359 354 342 357
203 194 193 188 191 170 144 133 164 193 192 200 176 162 157 149 160 157 130 120 112 100 90 84 77 71 66 64 58 51 46 41 38 37 36 33 33 27 16 2 353 355 341 340
199 203 191 203 204 152 139 109 136 192 191 200 180 165 154 160 159 152 127 118 106 96 82 76 70 64 58 58 56 54 48 41 38 31 24 17 12 1 351 350 351 353 341 329
200 207 201 202 190 169 172 180 168 216 183 181 184 168 156 158 153 145 123 110 97 86 71 64 60 55 48 44 45 43 40 41 32 22 15 14 6 358 349 346 342 336 331 328
196 208 202 205 198 185 180 206 178 221 185 184 175 163 169 173 147 130 117 104 90 73 62 54 49 45 41 40 39 37 37 33 25 16 8 1 357 349 345 341 334 331 330 328
201 211 216 217 214 197 194 193 153 166 174 164 155 149 157 175 150 132 120 108 88 65 48 44 38 40 37 35 36 42 45 38 27 17 7 360 350 343 338 338 335 332 331 329
202 203 208 210 197 200 198 186 187 182 188 192 178 141 131 143 149 139 128 114 84 57 48 41 29 35 44 38 37 36 39 32 23 17 9 359 350 342 338 337 335 333 331 329
200 203 200 205 197 208 198 190 171 161 163 174 181 193 154 149 137 127 117 93 67 45 39 29 13 25 16 20 22 23 19 12 8 6 1 355 348 342 338 335 332 332 332 332
199 201 203 203 194 213 205 191 174 168 171 171 184 189 167 166 186 125 105 94 68 41 17 360 349 352 333 349 346 342 351 351 351 351 349 346 345 341 336 334 332 332 332 330
201 199 202 204 198 211 200 199 192 178 180 190 175 190 182 186 229 128 112 96 53 18 5 352 339 317 317 330 327 327 333 339 343 343 342 341 340 339 338 335 334 332 330 327
201 200 204 204 202 213 208 202 204 198 189 190 187 188 187 203 222 246 107 55 1 340 337 325 311 318 323 319 318 327 329 330 331 333 334 336 339 341 341 341 337 332 328 326
198 200 207 205 205 210 213 206 208 201 207 194 188 205 197 192 207 181 91 27 356 333 325 320 320 321 320 319 323 324 322 322 324 327 333 336 336 340 341 339 337 332 328 325
198 200 206 208 207 212 211 215 213 215 198 200 186 191 184 185 211 172 36 4 345 329 316 319 320 319 315 314 314 315 318 320 326 332 336 338 339 338 338 338 336 332 327 323
202 202 205 210 207 215 209 210 213 205 199 199 194 213 185 170 180 211 314 326 325 301 304 307 312 313 314 315 315 319 323 329 334 337 337 338 338 336 335 334 331 327 323 320
201 207 207 209 207 211 206 205 217 208 194 186 187 219 179 170 204 230 252 301 315 309 302 305 312 313 312 316 323 326 329 332 334 335 336 335 335 333 332 331 326 323 321 319
205 207 210 215 210 210 213 207 209 207 201 198 188 216 233 190 214 237 262 293 291 318 314 313 309 309 321 325 328 330 330 331 333 334 334 334 336 336 336 330 325 324 322 318
204 206 211 214 215 211 209 200 199 207 203 195 210 226 228 218 224 244 271 290 291 323 320 321 321 324 324 324 328 330 329 329 329 331 332 335 337 337 332 326 324 324 320 318
199 203 209 212 214 212 213 205 202 209 211 204 199 210 210 210 233 256 264 278 294 312 320 315 313 318 321 324 325 324 323 325 327 330 333 335 335 335 329 324 324 323 319 321